Красноармейск

Казахстан     53°49′58″N   69°45′00″E
темп.,
°C
ветер,
м/с
пор.,
м/с
влажн.,
%
обл.,
%
осадки,
мм/ч
давл.,
гПа
погр.,
м
20 января, ср
ср2023:00−19вюв5987100 0.0 1024233
02:00−18в71288100 0.0 1022294
05:00−18вюв71487100 0.0 1021362
08:00−17вюв91686100 0.0 1018468
11:00−15вюв91591100 0.2 1016555
14:00−13юв71194100 2.6 1013421
17:00−12юв469599 2.8 1013136
20:00−14зюз7148993 0.1 1014454
21 января, чт
чт2123:00−17юз6149079 0.1 1017385
02:00−19зюз6138915 0.0 1018322
05:00−20юз5119224 0.0 1019239
08:00−21юз5119354 0.0 1019198
11:00−20юз5109173 0.0 1019286
14:00−18зюз4991100 0.0 1017314
17:00−20зюз349497 0.0 101660
20:00−22зюз349586 0.0 101667
22 января, пт
пт2223:00−24зюз359770 0.0 101576
02:00−27з449746 0.0 101562
05:00−28зюз479732 0.0 101591
08:00−28зюз469864 0.0 101788
11:00−25зюз489671 0.0 1018233
14:00−21зюз479599 0.0 1018296
17:00−21зюз379799 0.1 1019232
20:00−21зюз4897100 0.1 1021331
23 января, сб
сб2323:00−23зюз359899 0.2 102291
02:00−24з239888 0.0 102428
05:00−27сз2310089 0.1 102619
08:00−28сз2310097 0.0 103019
11:00−29ссз349899 0.0 1032121
14:00−29сз359644 0.0 1034197
17:00−33зсз349726 0.0 103735
20:00−34зсз339560 0.0 104028
24 января, вс
вс2423:00−32зюз339479 0.0 104071
02:00−30зюз2392100 0.0 104081
05:00−28ююз2490100 0.0 1039184
08:00−25ю3598100 0.1 1039225
11:00−21ю4697100 0.4 1037254
14:00−17ююз4795100 0.4 1036419
17:00−17ююз3795100 0.6 1035266
20:00−16ю4795100 0.1 1033303